User: anonymous   Login
Location: Unspecified
(34.1750°S, 150.8048°E)
Time: 17:19:02
(UTC+11:00)
Language:

RS-15 - Orbit

View from above orbital plane
View from above orbital plane
View from above satellite
View from above satellite

Ground track
Ground track

The orbit data is extracted from the following two-line orbital elements,

1 23439U 94085A   24051.59979873 -.00000026  00000-0  47928-3 0  9998
2 23439  64.8131 233.9298 0153967 165.6262 194.9114 11.27576158200331
Epoch (UTC): 20 February 2024 14:23:42
Eccentricity: 0.0153967
inclination: 64.8131°
perigee height: 1893 km
apogee height: 2151 km
right ascension of ascending node: 233.9298°
argument of perigee: 165.6262°
revolutions per day: 11.27576158
mean anomaly at epoch: 194.9114°
orbit number at epoch: 20033

The dashed part of the orbit path shows where the satellite is in the earth's shadow,  

DLR